Caslav, Czech Republic

6:31 PM CET on December 14, 2017 (GMT +0100)
Caslav

Weather History for LKCV - December, 2013

Change the Weather History Date:

Monday, December 23, 2013

  Actual Average Record
Temperature  
Mean Temperature 43 °F -  
Max Temperature 50 °F - - ()
Min Temperature 35 °F - - ()
Degree Days  
Heating Degree Days 22    
Moisture  
Dew Point 37 °F    
Average Humidity 76    
Maximum Humidity 93    
Minimum Humidity 54    
Precipitation  
Precipitation 0.00 in - - ()
Sea Level Pressure  
Sea Level Pressure 30.13 in    
Wind  
Wind Speed 9 mph ()    
Max Wind Speed 14 mph    
Max Gust Speed -    
Visibility 7.6 miles    
Events      
T = Trace of Precipitation, MM = Missing Value Source: Averaged Metar Reports

Daily Weather History Graph

Daily Weather History Graph

Search for Another Location

Airport or City:

Trip Planner

Search our weather history database for the weather conditions in past years. The results will help you decide how hot, cold, wet, or windy it might be!

Date:

Astronomy

Dec. 23, 2013 Rise Set
Actual Time 7:55 AM CET 4:00 PM CET
Civil Twilight 7:16 AM CET 4:38 PM CET
Nautical Twilight 6:35 AM CET 5:20 PM CET
Astronomical Twilight 5:55 AM CET 5:59 PM CET
Moon 10:26 PM CET (12/23) 10:41 AM CET (12/23)
Length of Visible Light 9h 22m
Length of Day
8h 05m
Waning Gibbous, 70% of the Moon is Illuminated
Dec 23
Waning Gibbous
Dec 25
Last Quarter
Jan 1
New
Jan 8
First Quarter
Jan 16
Full

Hourly Weather History & Observations

Time (CET) Temp. Windchill Dew Point Humidity Pressure Visibility Wind Dir Wind Speed Gust Speed Precip Events Conditions
12:00 AM 43 °F - 36 °F 69% 30.16 in 6 mi South 11.2 mph - -   Mostly Cloudy
12:00 AM 42.8 °F 36.6 °F 35.6 °F 76% 30.12 in - South 11.5 mph - N/A   Clear
1:00 AM 40 °F - 36 °F 79% 30.17 in 6 mi South 6.7 mph - -   Partly Cloudy
1:00 AM 41.0 °F 36.4 °F 35.6 °F 81% 30.12 in - South 6.9 mph - N/A   Clear
2:00 AM 41 °F - 36 °F 77% 30.16 in 6 mi South 11.2 mph - -   Mostly Cloudy
2:00 AM 41.0 °F 34.3 °F 35.6 °F 81% 30.12 in - South 11.5 mph - N/A   Clear
3:00 AM 43 °F - 36 °F 70% 30.15 in 6 mi South 13.4 mph - -   Scattered Clouds
3:00 AM 42.8 °F 36.2 °F 37.4 °F 81% 30.12 in 6.2 mi South 12.7 mph - N/A   Partly Cloudy
4:00 AM 41 °F - 36 °F 77% 30.14 in 6 mi South 13.4 mph - -   Partly Cloudy
4:00 AM 41.0 °F 33.5 °F 35.6 °F 81% 30.09 in - South 13.8 mph - N/A   Clear
5:00 AM 42 °F - 37 °F 75% 30.13 in 6 mi South 13.4 mph - -   Mostly Cloudy
5:00 AM 42.8 °F 35.8 °F 37.4 °F 81% 30.09 in - South 13.8 mph - N/A   Clear
6:00 AM 44 °F - 37 °F 67% 30.13 in 6 mi South 13.4 mph - -   Partly Cloudy
6:00 AM 44.6 °F 38.4 °F 37.4 °F 76% 30.09 in - South 12.7 mph - N/A   Clear
7:00 AM 40 °F - 36 °F 80% 30.15 in 6 mi SSE 11.2 mph - -   Partly Cloudy
7:00 AM 41.0 °F 34.7 °F 35.6 °F 81% 30.09 in 6.2 mi SSE 10.4 mph - N/A   Scattered Clouds
8:00 AM 44 °F - 38 °F 73% 30.17 in 9 mi SW 8.9 mph - -   Mostly Cloudy
8:00 AM 44.6 °F 39.7 °F 37.4 °F 76% 30.12 in 6.2 mi SW 9.2 mph - N/A   Mostly Cloudy
9:00 AM 45 °F - 38 °F 68% 30.17 in 9 mi SW 8.9 mph - -   Partly Cloudy
9:00 AM 44.6 °F 40.2 °F 37.4 °F 76% 30.15 in - SW 8.1 mph - N/A   Clear
10:00 AM 46 °F - 38 °F 65% 30.19 in 9 mi WSW 8.9 mph - -   Mostly Cloudy
10:00 AM 46.4 °F 41.9 °F 39.2 °F 76% 30.15 in - WSW 9.2 mph - N/A   Clear
11:00 AM 48 °F - 38 °F 59% 30.20 in 12 mi WSW 8.9 mph - -   Mostly Cloudy
11:00 AM 48.2 °F - 37.4 °F 66% 30.18 in - WSW 8.1 mph - N/A   Clear
12:00 PM 49 °F - 38 °F 54% 30.18 in 12 mi West 11.2 mph - -   Mostly Cloudy
12:00 PM 50.0 °F - 37.4 °F 62% 30.15 in - West 11.5 mph - N/A   Clear
1:00 PM 49 °F - 39 °F 59% 30.18 in 12 mi WSW 8.9 mph - -   Partly Cloudy
1:00 PM 50.0 °F - 39.2 °F 66% 30.15 in 6.2 mi WSW 8.1 mph - N/A   Mostly Cloudy
2:00 PM 50 °F - 40 °F 59% 30.17 in 12 mi SW 6.7 mph - -   Mostly Cloudy
2:00 PM 50.0 °F - 41.0 °F 71% 30.15 in - SW 5.8 mph - N/A   Clear
3:00 PM 49 °F - 40 °F 62% 30.16 in 12 mi SW 6.7 mph - -   Mostly Cloudy
3:00 PM 50.0 °F - 41.0 °F 71% 30.12 in - SW 5.8 mph - N/A   Clear
4:00 PM 47 °F - 40 °F 67% 30.15 in 12 mi South 8.9 mph - -   Mostly Cloudy
4:00 PM 48.2 °F - 39.2 °F 71% 30.12 in - South 9.2 mph - N/A   Clear
5:00 PM 47 °F - 39 °F 65% 30.14 in 6 mi South 8.9 mph - -   Mostly Cloudy
5:00 PM 46.4 °F 42.4 °F 39.2 °F 76% 30.12 in - South 8.1 mph - N/A   Clear
6:00 PM 43 °F - 38 °F 76% 30.14 in 6 mi SSE 8.9 mph - -   Mostly Cloudy
6:00 PM 42.8 °F 37.5 °F 37.4 °F 81% 30.09 in - SSE 9.2 mph - N/A   Clear
7:00 PM 39 °F - 36 °F 86% 30.14 in 6 mi SSE 8.9 mph - -   Partly Cloudy
7:00 PM 39.2 °F 33.6 °F 37.4 °F 93% 30.09 in - SSE 8.1 mph - N/A   Clear
8:00 PM 37 °F - 35 °F 90% 30.13 in 6 mi ESE 4.5 mph - -   Partly Cloudy
8:00 PM 39.2 °F 35.0 °F 37.4 °F 93% 30.09 in - SE 5.8 mph - N/A   Clear
9:00 PM 38 °F - 36 °F 89% 30.12 in 6 mi SSE 13.4 mph - -   Partly Cloudy
9:00 PM 37.4 °F 29.8 °F 35.6 °F 93% 30.06 in - SSE 11.5 mph - N/A   Clear
10:00 PM 36 °F - 35 °F 93% 30.11 in 6 mi SE 11.2 mph - -   Partly Cloudy
10:00 PM 37.4 °F 29.8 °F 35.6 °F 93% 30.06 in - SE 11.5 mph - N/A   Clear
11:00 PM 36 °F - 34 °F 89% 30.08 in 6 mi SE 6.7 mph - -   Partly Cloudy
11:00 PM 35.6 °F 30.7 °F 33.8 °F 93% 30.04 in - SE 5.8 mph - N/A   Clear